THORAD AGENA D DEB

Satellite information

Favourite Embed

Satellite Type and Status

DEBRISIN ORBIT

Key statistics

Satellite THORAD AGENA D DEB at a glance.

Uptime

20531

Days in orbit

Revolutions

≈ 14.3

Per day

Orbit

LEO

Low Earth Orbit

Inclination

70.1

Latest

Satellite identification and parameters

Extended collection of information and parameters for THORAD AGENA D DEB.

Object identification

Identified? True

Debris? True

Object name: THORAD AGENA D DEB

International designator: 1969-082BX

Object number (NORAD): 4208

Object ID (CCSDS): 4208

Country: UNITED STATES OF AMERICA (US)

Current information (Y/N): Y

RCS size: SMALL

Orbital parameters

Period: 101.011 minutes

Inclination: 70.0855 deg

SMA: 7184.636 km

Apoapsis: 818.484 km

Periapsis: 794.519 km

RAAN: 9.4804 deg

Eccentricy: 0.00166782

Argument of periapsis: 241.3397 deg

Mean anomaly: 118.6048 deg

Mean motion: 14.25593115 rev/day

Mean motion (dot): 0.00000754 rev/day2

B* drag term: 0.00034175802 1/REarth

Two-line elements (TLE)

Creation date: Dec. 16, 2025, 2:19 a.m.

Reference frame: TEME

Reference center: EARTH

Epoch: Dec. 15, 2025, 11:28 a.m. UTC

TLE line 0: 0 THORAD AGENA D DEB

TLE line 1: 1 04208U 69082BX 25349.47838050 .00000754 00000-0 34176-3 0 9997

TLE line 2: 2 04208 70.0855 9.4804 0016678 241.3397 118.6048 14.25593115983737

Live tracking on map

Real-time ground track for satellite THORAD AGENA D DEB.

In-orbit conjunctions

A list of the most updated potential collisions computed for object THORAD AGENA D DEB.

Target Orbit TCA Probability of collision Miss distance Type
NOAA 16 DEB SSO 2025-12-15 05:00:07 0.0001838788 78.0 (m) DEBRIS
NOAA 16 DEB SSO 2025-02-03 01:33:05 0.0001371293 36.0 (m) DEBRIS

Associated space launch

Poppy was the follow-on ELINT system, which succeeded the Grab ELINT satellite system.

THORAD AGENA D DEB was lifted into orbit during the mission ‘Thorad SLV-2G Agena D | Poppy 8A,B,C,D’, on board a Thorad SLV-2G Agena D space rocket.

The launch took place on Sept. 30, 1969, 1:40 p.m. from Space Launch Complex 1W.

For more information about the launch, click the button.

Launch to space Thorad SLV-2G Agena D | Poppy 8A,B,C,D
Thorad SLV-2G Agena D | Poppy 8A,B,C,D

Agency: N/A

Status: Launch Successful

Launch date: Sept. 30, 1969, 1:40 p.m. UTC

Rocket: Thorad SLV-2G Agena D

Launch pad: Space Launch Complex 1W

Location: Vandenberg SFB, CA, USA

...

Latest news about this satellite

There are no fresh news available about this satellite. Check back as we update our databases every day.


Newsletter sign-up

Weekly statistics, charts and insights to help you stay on top of the space industry.